Weather History for KIPT - February, 2013

Change the Weather History Date:

Thursday, February 21, 2013

  Actual Average Record
Temperature  
Mean Temperature 29 °F 31 °F  
Max Temperature 35 °F 40 °F 69 °F (1930)
Min Temperature 22 °F 22 °F -2 °F (1936)
Degree Days  
Heating Degree Days 36 34  
Month to date heating degree days 781 756  
Since 1 July heating degree days 3949 4235  
Cooling Degree Days 0 0  
Month to date cooling degree days 0 0  
Year to date cooling degree days 0 0  
Moisture  
Dew Point 13 °F    
Average Humidity 56    
Maximum Humidity 68    
Minimum Humidity 43    
Precipitation  
Precipitation T in 0.08 in 1.18 in (1954)
Month to date precipitation 0.79 1.74  
Year to date precipitation 3.43 4.44  
Snow  
Snow T in 0.30 in 7.40 in (2011)
Month to date snowfall 3.3 6.6  
Since 1 July snowfall 26.3 25.8  
Snow Depth T in    
Sea Level Pressure  
Sea Level Pressure 30.20 in    
Wind  
Wind Speed 11 mph (NW)    
Max Wind Speed 21 mph    
Max Gust Speed 29 mph    
Visibility 10 miles    
Events      
T = Trace of Precipitation, MM = Missing Value Source: NWS Daily Summary

Daily Weather History Graph

Daily Weather History Graph

Search for Another Location

Airport or City:

Trip Planner

Search our weather history database for the weather conditions in past years. The results will help you decide how hot, cold, wet, or windy it might be!

Date:

Astronomy

Feb. 21, 2013 Rise Set
Actual Time 6:53 AM EST 5:49 PM EST
Civil Twilight 6:25 AM EST 6:17 PM EST
Nautical Twilight 5:53 AM EST 6:49 PM EST
Astronomical Twilight 5:21 AM EST 7:21 PM EST
Moon 2:00 PM EST (2/21) 3:58 AM EST (2/21)
Length of Visible Light 11h 51m
Length of Day
10h 55m
Waxing Gibbous, 83% of the Moon is Illuminated
Feb 21
Waxing Gibbous
Feb 25
Full
Mar 4
Last Quarter
Mar 11
New
Mar 19
First Quarter

Hourly Weather History & Observations

Time (EST) Temp. Windchill Dew Point Humidity Pressure Visibility Wind Dir Wind Speed Gust Speed Precip Events Conditions
12:54 AM 21.9 °F 10.4 °F 10.9 °F 63% 30.08 in 10.0 mi West 11.5 mph - N/A   Overcast
1:54 AM 21.9 °F 11.7 °F 10.9 °F 63% 30.08 in 10.0 mi West 9.2 mph - N/A   Overcast
2:54 AM 23.0 °F 10.1 °F 10.0 °F 58% 30.08 in 10.0 mi West 15.0 mph 21.9 mph N/A   Overcast
3:54 AM 21.9 °F 10.4 °F 10.9 °F 63% 30.07 in 10.0 mi West 11.5 mph - N/A   Overcast
4:54 AM 21.9 °F 10.4 °F 10.9 °F 63% 30.09 in 10.0 mi West 11.5 mph - N/A   Overcast
5:54 AM 21.9 °F 11.7 °F 12.0 °F 66% 30.09 in 10.0 mi West 9.2 mph - 0.00 in   Overcast
6:54 AM 21.9 °F 11.7 °F 12.9 °F 68% 30.11 in 10.0 mi West 9.2 mph - 0.00 in   Overcast
7:54 AM 23.0 °F 10.6 °F 12.9 °F 65% 30.13 in 10.0 mi West 13.8 mph - N/A   Overcast
8:54 AM 24.1 °F 12.5 °F 12.0 °F 60% 30.15 in 10.0 mi West 12.7 mph - N/A   Overcast
9:54 AM 25.0 °F 12.2 °F 10.9 °F 55% 30.17 in 10.0 mi NW 16.1 mph 26.5 mph N/A   Overcast
10:54 AM 26.1 °F 14.0 °F 12.9 °F 58% 30.17 in 10.0 mi WNW 15.0 mph - N/A   Overcast
11:54 AM 28.4 °F 16.6 °F 12.2 °F 51% 30.13 in 10.0 mi WNW 16.1 mph 21.9 mph N/A   Mostly Cloudy
12:54 PM 30.9 °F 19.8 °F 15.1 °F 52% 30.15 in 10.0 mi West 16.1 mph 24.2 mph N/A   Mostly Cloudy
1:54 PM 32.0 °F 22.5 °F 12.9 °F 45% 30.16 in 10.0 mi NW 12.7 mph - N/A   Mostly Cloudy
2:54 PM 33.1 °F 23.9 °F 14.0 °F 46% 30.16 in 10.0 mi WNW 12.7 mph - N/A   Partly Cloudy
3:54 PM 34.0 °F 25.5 °F 15.1 °F 46% 30.17 in 10.0 mi WNW 11.5 mph - N/A   Clear
4:54 PM 33.1 °F 23.0 °F 14.0 °F 46% 30.21 in 10.0 mi NW 15.0 mph 21.9 mph N/A   Clear
5:54 PM 30.9 °F 27.5 °F 14.0 °F 50% 30.23 in 10.0 mi North 3.5 mph - N/A   Partly Cloudy
6:54 PM 28.9 °F 21.9 °F 14.0 °F 54% 30.30 in 10.0 mi NW 6.9 mph - N/A   Clear
7:54 PM 27.0 °F 16.7 °F 14.0 °F 58% 30.35 in 10.0 mi WNW 11.5 mph - N/A   Clear
8:54 PM 26.1 °F 18.4 °F 12.9 °F 58% 30.36 in 10.0 mi NNW 6.9 mph - N/A   Clear
9:54 PM 25.0 °F 17.1 °F 12.9 °F 60% 30.37 in 10.0 mi NE 6.9 mph - N/A   Clear
10:15 PM 24.8 °F - 12.2 °F 59% 30.35 in 10.0 mi Calm Calm - N/A   Mostly Cloudy
10:36 PM 24.8 °F 20.5 °F 12.2 °F 59% 30.35 in 10.0 mi NNW 3.5 mph - N/A   Scattered Clouds
10:54 PM 24.1 °F - 12.9 °F 62% 30.38 in 10.0 mi Calm Calm - N/A   Partly Cloudy
11:21 PM 24.8 °F 19.1 °F 12.2 °F 59% 30.35 in 10.0 mi North 4.6 mph - N/A   Mostly Cloudy
11:54 PM 24.1 °F 18.2 °F 14.0 °F 65% 30.38 in 10.0 mi North 4.6 mph - N/A   Mostly Cloudy